Weather History for Wainwright, AK

Change the Weather History Date:

Tuesday, July 23, 2013

  Actual Average (PABR) Record (PABR)
Temperature  
Mean Temperature 44 °F 41 °F  
Max Temperature 46 °F 47 °F 70 °F (2004)
Min Temperature 41 °F 35 °F 26 °F (1945)
Degree Days  
Heating Degree Days 22 24  
Month to date heating degree days 555  
Since 1 June heating degree days 1435  
Since 1 July heating degree days 555  
Cooling Degree Days 0    
Month to date cooling degree days  
Year to date cooling degree days  
Since 1 June cooling degree days  
Moisture  
Dew Point 39 °F    
Average Humidity 81    
Maximum Humidity 93    
Minimum Humidity 68    
Precipitation  
Precipitation 0.05 in 0.03 in 0.44 in (2006)
Month to date precipitation 0.70  
Year to date precipitation 1.72  
Snow  
Snow 0.00 in 0.00 in 1.00 in (1948)
Month to date snowfall 0.1  
Since 1 June snowfall 0.8  
Since 1 July snowfall 0.1  
Snow Depth -    
Sea Level Pressure  
Sea Level Pressure 29.98 in    
Wind  
Wind Speed 16 mph (West)    
Max Wind Speed 22 mph    
Max Gust Speed 29 mph    
Visibility 8 miles    
Events Rain    
T = Trace of Precipitation, MM = Missing Value Source: NWS Daily Summary

Daily Weather History Graph

Daily Weather History Graph

Search for Another Location

Airport:

Trip Planner

Search our weather history database for the weather conditions in past years. The results will help you decide how hot, cold, wet, or windy it might be!

Date:

Astronomy

Jul. 23, 2013 Rise Set
Actual Time 3:18 AM AKDT 2:14 AM AKDT
Civil Twilight Sun does not rise Sun does not rise
Nautical Twilight Sun does not rise Sun does not rise
Astronomical Twilight Sun does not rise Sun does not rise
Moon 11:58 PM AKDT (7/23) 6:56 AM AKDT (7/23)
Length of Visible Light 24h 00m
Length of Day
22h 55m
Full, 98% of the Moon is Illuminated
Jul 23
Full
Jul 29
Last Quarter
Aug 6
New
Aug 14
First Quarter
Aug 20
Full

Hourly Weather History & Observations

Time (AKDT) Temp. Windchill Dew Point Humidity Pressure Visibility Wind Dir Wind Speed Gust Speed Precip Events Conditions
12:21 AM 46.4 °F 39.0 °F 44.6 °F 93% 29.87 in 2.5 mi WSW 19.6 mph 28.8 mph 0.00 in Rain Light Rain
12:31 AM 46.4 °F 38.5 °F 44.6 °F 93% 29.87 in 3.0 mi WSW 21.9 mph 27.6 mph 0.00 in Rain Light Rain
12:41 AM 46.4 °F 39.2 °F 44.6 °F 93% 29.88 in 2.0 mi WSW 18.4 mph 25.3 mph 0.00 in Rain Light Rain
12:48 AM 46.4 °F 39.2 °F 44.6 °F 93% 29.88 in 1.5 mi WSW 18.4 mph 26.5 mph 0.00 in Rain Light Rain
12:53 AM 46.9 °F - 45.0 °F 93% 29.88 in 1.8 mi WSW 20.7 mph 26.5 mph 0.00 in Rain Light Rain
1:06 AM 46.4 °F 38.5 °F 44.6 °F 93% 29.88 in 2.0 mi WSW 21.9 mph 26.5 mph 0.00 in Rain Light Rain
1:53 AM 46.9 °F - 44.1 °F 90% 29.89 in 3.0 mi WSW 16.1 mph - 0.00 in Rain Light Rain
2:53 AM 46.0 °F 39.6 °F 44.1 °F 93% 29.91 in 6.0 mi West 15.0 mph 20.7 mph 0.02 in Rain Light Rain
3:09 AM 44.6 °F 37.2 °F 42.8 °F 93% 29.91 in 8.0 mi West 17.3 mph - 0.00 in Rain Light Rain
3:53 AM 45.0 °F 39.3 °F 42.1 °F 90% 29.92 in 10.0 mi West 11.5 mph - 0.00 in Rain Light Rain
4:53 AM 45.0 °F 38.9 °F 42.1 °F 90% 29.93 in 10.0 mi West 12.7 mph - 0.00 in Rain Light Rain
5:53 AM 45.0 °F 38.2 °F 42.1 °F 90% 29.94 in 10.0 mi West 15.0 mph - 0.00 in   Overcast
6:53 AM 45.0 °F 38.5 °F 42.1 °F 90% 29.95 in 5.0 mi West 13.8 mph - 0.00 in Rain Light Rain
7:53 AM 45.0 °F 38.5 °F 42.1 °F 90% 29.96 in 6.0 mi West 13.8 mph - 0.00 in Rain Light Rain
8:53 AM 42.1 °F 34.9 °F 39.0 °F 89% 29.97 in 9.0 mi NW 13.8 mph - 0.00 in Rain Light Rain
9:53 AM 41.0 °F 34.3 °F 37.0 °F 86% 30.00 in 5.0 mi NW 11.5 mph - 0.03 in Rain Light Rain
10:53 AM 41.0 °F 34.3 °F 37.0 °F 86% 30.02 in 10.0 mi WNW 11.5 mph - 0.00 in   Overcast
11:04 AM 41.0 °F 33.5 °F 35.6 °F 81% 30.01 in 10.0 mi WNW 13.8 mph - N/A   Overcast
11:31 AM 42.8 °F 36.2 °F 35.6 °F 76% 30.02 in 10.0 mi WNW 12.7 mph - N/A   Overcast
11:53 AM 42.1 °F 34.9 °F 36.0 °F 79% 30.03 in 10.0 mi WNW 13.8 mph - N/A   Overcast
12:53 PM 42.1 °F 35.7 °F 35.1 °F 76% 30.03 in 10.0 mi WNW 11.5 mph - N/A   Overcast
1:53 PM 44.1 °F 39.0 °F 36.0 °F 73% 30.04 in 10.0 mi West 9.2 mph - N/A   Mostly Cloudy
2:24 PM 44.6 °F 39.7 °F 37.4 °F 76% 30.03 in 10.0 mi West 9.2 mph - N/A   Mostly Cloudy
2:53 PM 46.0 °F 40.6 °F 36.0 °F 68% 30.04 in 10.0 mi West 11.5 mph - N/A   Mostly Cloudy
3:53 PM 45.0 °F 38.2 °F 35.1 °F 68% 30.05 in 10.0 mi West 15.0 mph 19.6 mph N/A   Mostly Cloudy
4:05 PM 44.6 °F 38.4 °F 35.6 °F 71% 30.04 in 10.0 mi West 12.7 mph - N/A   Scattered Clouds
4:28 PM 44.6 °F 38.1 °F 35.6 °F 71% 30.04 in 10.0 mi West 13.8 mph - N/A   Mostly Cloudy
4:53 PM 43.0 °F 36.0 °F 34.0 °F 71% 30.05 in 10.0 mi West 13.8 mph - N/A   Mostly Cloudy
5:53 PM 44.1 °F 38.6 °F 35.1 °F 71% 30.05 in 10.0 mi West 10.4 mph - N/A   Mostly Cloudy
6:53 PM 44.1 °F 37.4 °F 35.1 °F 71% 30.04 in 10.0 mi West 13.8 mph 19.6 mph N/A   Overcast
7:53 PM 44.1 °F 36.8 °F 36.0 °F 73% 30.03 in 10.0 mi WSW 16.1 mph - N/A   Scattered Clouds
8:21 PM 44.6 °F 37.2 °F 35.6 °F 71% 30.03 in 10.0 mi WSW 17.3 mph - N/A   Mostly Cloudy
8:53 PM 44.1 °F 36.8 °F 35.1 °F 71% 30.03 in 10.0 mi West 16.1 mph 23.0 mph N/A   Mostly Cloudy
9:53 PM 44.1 °F 35.9 °F 36.0 °F 73% 30.02 in 10.0 mi WSW 19.6 mph 27.6 mph N/A   Overcast
10:53 PM 44.1 °F 35.4 °F 37.0 °F 76% 30.01 in 10.0 mi WSW 21.9 mph 28.8 mph N/A   Overcast
11:53 PM 44.1 °F 35.9 °F 36.0 °F 73% 30.01 in 10.0 mi West 19.6 mph 28.8 mph N/A   Overcast